Hourly Weather Roundup
Issued by NWS Central Illinois

Home | Current Version | Previous Version | Text Only | Print | Product List | Glossary On
Versions: 1 2 3 4 5 6 7 8 9 10 11 12 13 14 15 16 17 18 19 20 21 22 23 24 25 26 27 28 29 30 31 32 33 34 35 36 37 38 39 40 41 42 43 44 45 46 47 48 49 50
000
NZUS43 KILX 261010
HWRILX

Area Weather Roundup
National Weather Service Lincoln IL
500 AM CDT TUE SEP 26 2017

NOTE:  "FAIR" indicates few or no clouds below 12,000 feet, with
       no sigificant weather and/or obstructions to visibility.


CITY           SKY/WX    TMP DP  RH WIND       PRES   REMARKS
Bloomington    CLOUDY    67  62  84 SW7       29.97S
Champaign      CLEAR     66  60  81 S3        29.98
Danville       CLEAR     65  62  92 CALM      29.95S
Decatur        MOCLDY    65  60  84 CALM      29.97R
Effingham      CLEAR     64  64  97 CALM      29.98F
Flora          CLEAR     67  65  91 CALM      29.98S
Galesburg      CLOUDY    69  64  84 E5        29.93F
Jacksonville   CLOUDY    73  61  67 S5        29.94S
Lacon          CLOUDY    68  64  88 CALM      29.93S
Lawrenceville  CLEAR     67  66  97 E6        29.98R FOG
Litchfield     CLOUDY    67  62  85 S5        29.96S
$$


CITY           SKY/WX    TMP DP  RH WIND       PRES   REMARKS
Lincoln        CLOUDY    67  63  89 S5        29.95S
Macomb         CLOUDY    67  64  89 SE3       29.95S
Mattoon        CLEAR     69  64  84 S6        29.97R
Mt Carmel AP   CLEAR     64  61  91 E3        29.98S
Olney-Noble AP CLEAR     65  63  93 CALM      29.98S
Paris AP       CLEAR     64  62  95 CALM      29.99R
Peoria         CLOUDY    71  64  78 S7        29.93S
Pontiac        PTCLDY    65  64  98 SE3       29.96S
Rantoul        CLEAR     67  63  86 CALM      29.97S
Robinson       CLEAR     62  61  99 CALM      29.99R
Springfield    MOCLDY    74  63  68 S5        29.95R
Taylorville    CLOUDY    67  62  83 S5        29.97R
$$

...REGIONAL REPORTS...


CITY           SKY/WX    TMP DP  RH WIND       PRES   REMARKS
Chicago O`Hare CLEAR     71  57  61 CALM      29.92S
Kankakee       CLEAR     64  61  92 CALM      29.97R
Moline         CLOUDY    69  67  93 E6        29.91S
Mount Sterling CLOUDY    67  64  90 S3        29.93S
Mount Vernon     N/A     61  61 100 CALM      29.97S
Pittsfield     CLOUDY    71  64  79 S3        29.95S
Quincy         CLOUDY    72  63  73 S6        29.92S
Rockford       MOCLDY    65  61  87 NW6       29.95R
$$


CITY           SKY/WX    TMP DP  RH WIND       PRES   REMARKS
Burlington     CLOUDY    70  68  93 CALM      29.91S
Cedar Rapids   CLOUDY    67  66  97 W12       29.94R
Des Moines     CLOUDY    66  66 100 S5        29.91S
Kirksville     CLOUDY    67  64  90 N5        29.93S
Ottumwa        CLOUDY    67  65  93 NE6       29.91F
St Louis       PTCLDY    74  63  68 S3        29.95S
$$


CITY           SKY/WX    TMP DP  RH WIND       PRES   REMARKS
Terre Haute    CLEAR     65  62  90 CALM      29.98S
Evansville     CLEAR     67  66  97 CALM      29.98S FOG
Indianapolis   CLEAR     68  63  84 SE3       30.00R
Lafayette      CLEAR     66  64  93 CALM      29.97S
Madison        LGT RAIN  65  64  97 E6        29.92F
Milwaukee      PTCLDY    68  60  75 CALM      29.92S
$$






USA.gov is the U.S. government's official web portal to all federal, state and local government web resources and services.